Home   Weather   Shizuoka   Past weeks

Flag for Japan Past Weather in Shizuoka, Japan — Yesterday and Last 2 Weeks

Now
47 °F

Cool.


Feels Like: 42 °F
Forecast: 35 / 58 °F
Wind: 13 mph from West

Location: Omaezaki

Current Time: Dec 8, 2016 at 1:27:06 am

Latest Report: Dec 8, 2016 at 12:00 am


Visibility: 13 mi

Pressure: 30.00 "Hg

Humidity: 64%

Dew Point: 36 °F

Location of ShizuokaLocation

Past Weather in Shizuoka — Graph

°F

Shizuoka Temperature Yesterday

Maximum temperature yesterday: 56 °F (at 2:00 pm)
Minimum temperature yesterday: 41 °F (at 2:00 am)
Average temperature yesterday: 49 °F

High & Low Weather Summary for the Past Weeks

 TemperatureHumidityPressure
High65 °F (Dec 1, 1:00 pm)97% (Nov 27, 6:00 am)30.45 "Hg (Nov 27, 6:00 am)
Low41 °F (Dec 7, 2:00 am)32% (Nov 29, 1:00 pm)29.73 "Hg (Nov 28, 3:00 am)
Average54 °F69%30.08 "Hg
* Reported Nov 23 12:00 am — Dec 8 12:00 am, Shizuoka, Weather by CustomWeather, © 2016

Note: Actual official high and low records may vary slightly from our data, if they occured in-between our weather recording intervals... More about our weather records

Advertising

Shizuoka Weather History for the Previous 24 Hours

Scroll right to see more
 ConditionsComfort  
Time TempWeatherWind HumidityBarometerVisibility
12:00 am
Thu, Dec 8
47 °FCool.13 mph64%30.00 "Hg12 mi
11:00 pm
Wed, Dec 7
46 °FCool.10 mph59%30.00 "Hg12 mi
10:00 pm47 °FCool.10 mph55%30.01 "Hg12 mi
9:00 pm47 °FCool.12 mph55%30.01 "Hg12 mi
8:00 pm47 °FCool.12 mph53%30.01 "Hg12 mi
7:00 pm48 °FCool.10 mph51%30.02 "Hg12 mi
6:00 pm50 °FCool.12 mph49%30.03 "Hg12 mi
5:00 pm52 °FCool.16 mph50%30.02 "Hg12 mi
4:00 pm53 °FCool.15 mph51%30.01 "Hg12 mi
3:00 pm54 °FCool.16 mph44%30.01 "Hg12 mi
2:00 pm56 °FRefreshingly cool.16 mph39%30.01 "Hg12 mi
12:00 pm55 °FRefreshingly cool.12 mph51%30.05 "Hg12 mi
11:00 am53 °FCool.13 mph60%30.08 "Hg12 mi
10:00 am52 °FCool.7 mph65%30.10 "Hg12 mi
9:00 am49 °FCool.5 mph65%30.09 "Hg12 mi
2:00 am41 °FQuite cool.10 mph60%30.04 "Hg12 mi
1:00 am41 °FQuite cool.14 mph59%30.02 "Hg12 mi
Weather by CustomWeather, © 2016

See weather overviewHow to use our weather pages